Location: Archemont
(49.1579°N, 1.7598°E)
Time: 22:30:52
(UTC+00:00)

Altair - Pass Details

Date: 18 April 2024
Orbit: 1501 x 1682 km, 47.2° (Epoch: 19 May)

Event Time Altitude Azimuth Distance (km) Brightness Sun altitude
Rises 02:58:13 0° 288° (WNW) 4,767 9.8 -17.3°
Reaches altitude 10° 03:02:27 10° 272° (W) 3,747 9.1 -16.8°
Enters shadow 03:03:48 13° 265° (W) 3,484 8.9 -16.7°
Maximum altitude 03:08:29 19° 232° (SW) 3,027 - -16.1°
Exits shadow 03:12:14 15° 203° (SSW) 3,287 8.7 -15.6°
Drops below altitude 10° 03:14:27 10° 191° (S) 3,664 9.0 -15.3°
Sets 03:18:33 0° 174° (S) 4,628 9.7 -14.8°
